Weather History for Shannon, Ireland

Change the Weather History Date:

Wednesday, January 30, 2013

  Actual Average Record
Temperature  
Mean Temperature 46 °F -  
Max Temperature 49 °F 47 °F 53 °F (1999)
Min Temperature 42 °F 37 °F 24 °F (2006)
Degree Days  
Heating Degree Days 20    
Moisture  
Dew Point 39 °F    
Average Humidity 74    
Maximum Humidity 93    
Minimum Humidity 58    
Precipitation  
Precipitation 0.03 in 0.09 in - ()
Sea Level Pressure  
Sea Level Pressure 29.61 in    
Wind  
Wind Speed 19 mph ()    
Max Wind Speed 40 mph    
Max Gust Speed 62 mph    
Visibility 6.3 miles    
Events Rain    
Averages and records for this station are not official NWS values.
T = Trace of Precipitation, MM = Missing Value Source: Averaged Metar Reports

Daily Weather History Graph

Daily Weather History Graph

Search for Another Location

Airport:

Trip Planner

Search our weather history database for the weather conditions in past years. The results will help you decide how hot, cold, wet, or windy it might be!

Date:

Astronomy

Jan. 30, 2013 Rise Set
Actual Time 8:20 AM GMT 5:17 PM GMT
Civil Twilight 7:43 AM GMT 5:55 PM GMT
Nautical Twilight 7:01 AM GMT 6:36 PM GMT
Astronomical Twilight 6:21 AM GMT 7:17 PM GMT
Moon 9:41 PM GMT (1/30) 9:07 AM GMT (1/30)
Length of Visible Light 10h 12m
Length of Day
8h 56m
Waning Gibbous, 89% of the Moon is Illuminated
Jan 30
Waning Gibbous
Feb 3
Last Quarter
Feb 10
New
Feb 17
First Quarter
Feb 25
Full

Hourly Weather History & Observations

Time (GMT) Temp. Windchill Dew Point Humidity Pressure Visibility Wind Dir Wind Speed Gust Speed Precip Events Conditions
12:00 AM 47 °F - 42 °F 78% 29.37 in 12 mi SW 17.9 mph - - Rain Light Rain Showers
12:00 AM 46.4 °F 39.8 °F 42.8 °F 87% 29.36 in 6.2 mi SW 16.1 mph - N/A   Mostly Cloudy
12:30 AM 46.4 °F 39.2 °F 41.0 °F 81% 29.39 in 6.2 mi SW 18.4 mph - N/A   Mostly Cloudy
1:00 AM 46.4 °F 39.8 °F 41.0 °F 81% 29.39 in 6.2 mi SW 16.1 mph - N/A   Mostly Cloudy
1:30 AM 46.4 °F 39.2 °F 42.8 °F 87% 29.39 in 6.2 mi WSW 18.4 mph - N/A   Mostly Cloudy
2:00 AM 46.4 °F 39.0 °F 42.8 °F 87% 29.39 in 6.2 mi WSW 19.6 mph - N/A   Mostly Cloudy
2:30 AM 46.4 °F 39.8 °F 41.0 °F 81% 29.39 in 6.2 mi SW 16.1 mph - N/A   Partly Cloudy
3:00 AM 46.4 °F 39.8 °F 41.0 °F 81% 29.42 in 6.2 mi SW 16.1 mph - N/A   Partly Cloudy
3:30 AM 46.4 °F 39.8 °F 41.0 °F 81% 29.42 in 6.2 mi WSW 16.1 mph 28.8 mph N/A Rain Light Rain Showers
4:00 AM 44.6 °F 38.1 °F 41.0 °F 87% 29.42 in 6.2 mi SW 13.8 mph - N/A   Scattered Clouds
4:30 AM 46.4 °F 39.5 °F 39.2 °F 76% 29.42 in 6.2 mi SW 17.3 mph - N/A   Partly Cloudy
5:00 AM 46.4 °F 38.7 °F 37.4 °F 71% 29.42 in 6.2 mi SW 20.7 mph - N/A   Partly Cloudy
5:30 AM 46.4 °F 38.3 °F 37.4 °F 71% 29.44 in 6.2 mi SW 23.0 mph - N/A   Scattered Clouds
6:00 AM 47 °F - 37 °F 59% 29.46 in 12 mi SW 20.1 mph - -   Partly Cloudy
6:00 AM 46.4 °F 38.7 °F 37.4 °F 71% 29.44 in 6.2 mi SW 20.7 mph - N/A   Mostly Cloudy
6:30 AM 46.4 °F 38.7 °F 37.4 °F 71% 29.44 in 6.2 mi SW 20.7 mph - N/A   Mostly Cloudy
7:00 AM 48.2 °F - 39.2 °F 71% 29.44 in 6.2 mi WSW 29.9 mph 41.4 mph N/A Rain Light Rain Showers
7:30 AM 48.2 °F - 35.6 °F 62% 29.47 in 6.2 mi WSW 34.5 mph 46.0 mph N/A   Mostly Cloudy
8:00 AM 48.2 °F - 35.6 °F 62% 29.47 in 6.2 mi WSW 32.2 mph 46.0 mph N/A   Mostly Cloudy
8:30 AM 48.2 °F - 37.4 °F 66% 29.50 in 5.0 mi WSW 28.8 mph 46.0 mph N/A   Mostly Cloudy
9:00 AM 48.2 °F - 35.6 °F 62% 29.53 in 5.6 mi WSW 34.5 mph - N/A   Mostly Cloudy
9:30 AM 48.2 °F - 33.8 °F 58% 29.53 in 6.2 mi WSW 40.3 mph 56.4 mph N/A   Mostly Cloudy
10:00 AM 48.2 °F - 37.4 °F 66% 29.56 in 5.6 mi WSW 33.4 mph 46.0 mph N/A   Mostly Cloudy
10:30 AM 48.2 °F - 37.4 °F 66% 29.59 in 5.0 mi WSW 36.8 mph 48.3 mph N/A Rain Light Rain Showers
11:00 AM 48.2 °F - 37.4 °F 66% 29.62 in 5.0 mi WSW 35.7 mph 47.2 mph N/A Rain Light Rain Showers
11:30 AM 48.2 °F - 35.6 °F 62% 29.65 in 6.2 mi WSW 32.2 mph 44.9 mph N/A   Mostly Cloudy
12:00 PM 47 °F - 38 °F 60% 29.70 in 5 mi WSW 29.1 mph - - Rain Light Rain Showers
12:00 PM 48.2 °F - 37.4 °F 66% 29.68 in 5.0 mi WSW 29.9 mph 44.9 mph N/A Rain Light Rain Showers
12:30 PM 48.2 °F - 37.4 °F 66% 29.71 in 5.0 mi West 31.1 mph 59.8 mph N/A   Mostly Cloudy
1:00 PM 44.6 °F 33.8 °F 41.0 °F 87% 29.74 in 6.2 mi West 36.8 mph 62.1 mph N/A   Mostly Cloudy
1:30 PM 46.4 °F 37.2 °F 41.0 °F 81% 29.77 in 5.0 mi West 29.9 mph 44.9 mph N/A   Mostly Cloudy
2:00 PM 48.2 °F - 39.2 °F 71% 29.80 in 6.2 mi West 26.5 mph - N/A   Scattered Clouds
2:30 PM 48.2 °F - 39.2 °F 71% 29.80 in 6.2 mi West 23.0 mph 35.7 mph N/A   Scattered Clouds
3:00 PM 48.2 °F - 39.2 °F 71% 29.83 in 6.2 mi West 20.7 mph - N/A   Partly Cloudy
3:30 PM 48.2 °F - 39.2 °F 71% 29.83 in 6.2 mi West 17.3 mph - N/A   Partly Cloudy
4:00 PM 46.4 °F 40.7 °F 37.4 °F 71% 29.83 in 6.2 mi WSW 12.7 mph - N/A   Mostly Cloudy
4:30 PM 46.4 °F 41.5 °F 37.4 °F 71% 29.83 in 6.2 mi WSW 10.4 mph - N/A   Mostly Cloudy
5:00 PM 44.6 °F 42.2 °F 37.4 °F 76% 29.83 in 6.2 mi South 4.6 mph - N/A   Mostly Cloudy
5:30 PM 44.6 °F 42.2 °F 35.6 °F 71% 29.83 in 6.2 mi SE 4.6 mph - N/A   Mostly Cloudy
6:00 PM 43 °F - 36 °F 70% 29.84 in 12 mi SE 11.2 mph - -   Partly Cloudy
6:00 PM 42.8 °F 37.0 °F 37.4 °F 81% 29.83 in 6.2 mi SE 10.4 mph - N/A   Mostly Cloudy
6:30 PM 42.8 °F 37.5 °F 35.6 °F 76% 29.80 in 6.2 mi South 9.2 mph - N/A   Mostly Cloudy
7:00 PM 44.6 °F 38.8 °F 37.4 °F 76% 29.80 in 6.2 mi SSE 11.5 mph - N/A   Mostly Cloudy
7:30 PM 44.6 °F 38.8 °F 37.4 °F 76% 29.80 in 6.2 mi SSE 11.5 mph - N/A   Mostly Cloudy
8:00 PM 44.6 °F 39.7 °F 37.4 °F 76% 29.80 in 6.2 mi SSE 9.2 mph - N/A   Mostly Cloudy
8:30 PM 46.4 °F 41.5 °F 39.2 °F 76% 29.77 in 6.2 mi SSE 10.4 mph - N/A   Mostly Cloudy
9:00 PM 46.4 °F 40.1 °F 39.2 °F 76% 29.71 in 6.2 mi South 15.0 mph - N/A   Mostly Cloudy
9:30 PM 48.2 °F - 41.0 °F 76% 29.68 in 6.2 mi SSE 20.7 mph - N/A   Mostly Cloudy
10:00 PM 48.2 °F - 41.0 °F 76% 29.65 in 6.2 mi SSE 19.6 mph - N/A Rain Light Rain
10:30 PM 46.4 °F 39.0 °F 44.6 °F 93% 29.59 in 5.0 mi South 19.6 mph - N/A Rain Light Rain
11:00 PM 46.4 °F 38.1 °F 42.8 °F 87% 29.56 in 3.7 mi South 24.2 mph 35.7 mph N/A Rain Light Rain
11:30 PM 46.4 °F 37.4 °F 41.0 °F 81% 29.53 in 6.2 mi SSW 28.8 mph - N/A Rain Light Rain